| time (UTC) | temp F | wind direction | speed MPH | gust MPH | rain 1hr in | rain 24hr in | rain mn in | humidity % | barometer mb |
| 20260831004610 | 74 | 340 | 4.0 | 10.0 | 0.00 | 0.00 | 0.00 | 40 | 1017.6 |
| 20260831003153 | 74 | 336 | 4.0 | 9.0 | 0.00 | 0.00 | 0.00 | 40 | 1017.6 |
| 20260831001534 | 74 | 332 | 5.0 | 10.0 | 0.00 | 0.00 | 0.00 | 39 | 1017.7 |
| 20260831000109 | 73 | 333 | 5.0 | 9.0 | 0.00 | 0.00 | 0.00 | 39 | 1017.8 |
| 20260830234537 | 74 | 329 | 5.0 | 10.0 | 0.00 | 0.00 | 0.00 | 39 | 1018.1 |
| 20260830231534 | 74 | 337 | 3.0 | 9.0 | 0.00 | 0.00 | 0.00 | 39 | 1018.1 |
| 20260830230148 | 74 | 39 | 4.0 | 10.0 | 0.00 | 0.00 | 0.00 | 40 | 1018.2 |
| 20260830224533 | 73 | 23 | 3.0 | 8.0 | 0.00 | 0.00 | 0.00 | 41 | 1018.5 |
| 20260830223111 | 73 | 25 | 6.0 | 9.0 | 0.00 | 0.00 | 0.00 | 42 | 1018.7 |
| 20260830221535 | 73 | 32 | 4.0 | 10.0 | 0.00 | 0.00 | 0.00 | 42 | 1018.8 |
| 20260830220037 | 72 | 21 | 3.0 | 11.0 | 0.00 | 0.00 | 0.00 | 44 | 1019.0 |
| 20260830214534 | 71 | 13 | 4.0 | 9.0 | 0.00 | 0.00 | 0.00 | 45 | 1019.3 |
| 20260830213036 | 70 | 35 | 5.0 | 10.0 | 0.00 | 0.00 | 0.00 | 45 | 1019.4 |
| 20260830211642 | 70 | 32 | 3.0 | 8.0 | 0.00 | 0.00 | 0.00 | 46 | 1019.5 |
| 20260830210030 | 69 | 20 | 4.0 | 9.0 | 0.00 | 0.00 | 0.00 | 48 | 1019.6 |
| 20260830204609 | 69 | 25 | 3.0 | 8.0 | 0.00 | 0.00 | 0.00 | 49 | 1019.9 |
| 20260830203036 | 68 | 38 | 5.0 | 11.0 | 0.00 | 0.00 | 0.00 | 50 | 1020.1 |
| 20260830201536 | 68 | 22 | 5.0 | 11.0 | 0.00 | 0.00 | 0.00 | 50 | 1020.2 |
| 20260830200154 | 67 | 19 | 4.0 | 9.0 | 0.00 | 0.00 | 0.00 | 50 | 1020.4 |
| 20260830194535 | 66 | 7 | 5.0 | 10.0 | 0.00 | 0.00 | 0.00 | 53 | 1020.5 |
| 20260830193141 | 67 | 29 | 4.0 | 11.0 | 0.00 | 0.00 | 0.00 | 51 | 1020.5 |
| 20260830184535 | 65 | 34 | 4.0 | 11.0 | 0.00 | 0.00 | 0.00 | 55 | 1021.1 |
| 20260830183036 | 64 | 10 | 5.0 | 10.0 | 0.00 | 0.00 | 0.00 | 55 | 1021.2 |
| 20260830181535 | 64 | 38 | 4.0 | 9.0 | 0.00 | 0.00 | 0.00 | 55 | 1021.2 |
| 20260830180035 | 64 | 18 | 4.0 | 8.0 | 0.00 | 0.00 | 0.00 | 57 | 1021.2 |
| 20260830174641 | 62 | 35 | 5.0 | 10.0 | 0.00 | 0.00 | 0.00 | 59 | 1021.2 |
| 20260830173035 | 62 | 25 | 5.0 | 11.0 | 0.00 | 0.00 | 0.00 | 61 | 1021.3 |
| 20260830171534 | 61 | 22 | 6.0 | 10.0 | 0.00 | 0.00 | 0.00 | 62 | 1021.3 |
| 20260830170034 | 60 | 17 | 5.0 | 9.0 | 0.00 | 0.00 | 0.00 | 64 | 1021.4 |
| 20260830164609 | 60 | 11 | 3.0 | 7.0 | 0.00 | 0.00 | 0.00 | 64 | 1021.5 |
| 20260830163033 | 59 | 15 | 3.0 | 7.0 | 0.00 | 0.00 | 0.00 | 66 | 1021.7 |
| 20260830160143 | 57 | 18 | 3.0 | 6.0 | 0.00 | 0.00 | 0.00 | 70 | 1022.0 |
| 20260830153031 | 55 | 40 | 3.0 | 6.0 | 0.00 | 0.00 | 0.00 | 72 | 1022.0 |
| 20260830144534 | 48 | 200 | 3.0 | 5.0 | 0.00 | 0.00 | 0.00 | 81 | 1022.1 |
| 20260830143036 | 47 | 177 | 2.0 | 6.0 | 0.00 | 0.00 | 0.00 | 82 | 1022.0 |
| 20260830140031 | 46 | 192 | 1.0 | 4.0 | 0.00 | 0.00 | 0.00 | 84 | 1021.7 |
| 20260830131534 | 47 | 205 | 1.0 | 4.0 | 0.00 | 0.00 | 0.00 | 78 | 1021.3 |
| 20260830130109 | 50 | 21 | 0.0 | 3.0 | 0.00 | 0.00 | 0.00 | 72 | 1021.2 |
| 20260830123037 | 52 | 206 | 6.0 | 13.0 | 0.00 | 0.00 | 0.00 | 69 | 1021.2 |
| 20260830121533 | 52 | 209 | 8.0 | 17.0 | 0.00 | 0.00 | 0.00 | 68 | 1021.2 |
| 20260830120032 | 53 | 209 | 8.0 | 18.0 | 0.00 | 0.00 | 0.00 | 68 | 1021.2 |
| 20260830114532 | 53 | 215 | 7.0 | 15.0 | 0.00 | 0.00 | 0.00 | 69 | 1021.1 |
| 20260830113109 | 53 | 222 | 8.0 | 14.0 | 0.00 | 0.00 | 0.00 | 69 | 1021.1 |
| 20260830111534 | 53 | 221 | 8.0 | 14.0 | 0.00 | 0.00 | 0.00 | 69 | 1021.1 |
| 20260830110035 | 53 | 221 | 7.0 | 16.0 | 0.00 | 0.00 | 0.00 | 70 | 1021.0 |
| 20260830104530 | 53 | 214 | 6.0 | 14.0 | 0.00 | 0.00 | 0.00 | 71 | 1021.2 |
| 20260830103033 | 52 | 211 | 7.0 | 15.0 | 0.00 | 0.00 | 0.00 | 71 | 1021.2 |
| 20260830101536 | 53 | 198 | 7.0 | 13.0 | 0.00 | 0.00 | 0.00 | 70 | 1021.2 |
| 20260830100036 | 53 | 209 | 7.0 | 15.0 | 0.00 | 0.00 | 0.00 | 70 | 1021.2 |
| 20260830091537 | 54 | 211 | 8.0 | 14.0 | 0.00 | 0.00 | 0.00 | 70 | 1021.2 |
| 20260830090038 | 54 | 218 | 9.0 | 16.0 | 0.00 | 0.00 | 0.00 | 70 | 1021.2 |
| 20260830084536 | 54 | 218 | 9.0 | 16.0 | 0.00 | 0.00 | 0.00 | 71 | 1021.2 |
| 20260830083032 | 52 | 215 | 7.0 | 16.0 | 0.00 | 0.00 | 0.00 | 75 | 1021.3 |
| 20260830074536 | 53 | 51 | 1.0 | 3.0 | 0.00 | 0.00 | 0.00 | 69 | 1021.3 |
| 20260830073033 | 55 | 276 | 3.0 | 10.0 | 0.00 | 0.00 | 0.00 | 67 | 1021.2 |
| 20260830070036 | 55 | 244 | 5.0 | 13.0 | 0.00 | 0.00 | 0.00 | 67 | 1021.2 |
| 20260830063037 | 55 | 255 | 2.0 | 10.0 | 0.00 | 0.00 | 0.00 | 68 | 1021.2 |
| 20260830061536 | 55 | 251 | 3.0 | 9.0 | 0.00 | 0.00 | 0.00 | 68 | 1021.2 |
| 20260830060110 | 55 | 228 | 4.0 | 9.0 | 0.00 | 0.00 | 0.00 | 68 | 1021.3 |
| 20260830054542 | 56 | 223 | 5.0 | 11.0 | 0.00 | 0.00 | 0.00 | 69 | 1021.3 |
| 20260830053032 | 55 | 220 | 5.0 | 10.0 | 0.00 | 0.00 | 0.00 | 69 | 1021.2 |
| 20260830050109 | 55 | 218 | 4.0 | 9.0 | 0.00 | 0.00 | 0.00 | 69 | 1021.2 |
| 20260830043036 | 57 | 249 | 3.0 | 7.0 | 0.00 | 0.00 | 0.00 | 67 | 1021.0 |
| 20260830041540 | 55 | 252 | 4.0 | 11.0 | 0.00 | 0.00 | 0.00 | 69 | 1020.8 |
| 20260830040038 | 57 | 233 | 4.0 | 9.0 | 0.00 | 0.00 | 0.00 | 65 | 1020.7 |
| 20260830034537 | 58 | 244 | 3.0 | 8.0 | 0.00 | 0.00 | 0.00 | 65 | 1020.6 |
| 20260830031536 | 56 | 249 | 3.0 | 9.0 | 0.00 | 0.00 | 0.00 | 69 | 1020.5 |
| 20260830030037 | 57 | 244 | 2.0 | 5.0 | 0.00 | 0.00 | 0.00 | 67 | 1020.4 |
| 20260830024537 | 59 | 268 | 2.0 | 6.0 | 0.00 | 0.00 | 0.00 | 64 | 1020.4 |
| 20260830023035 | 60 | 285 | 2.0 | 7.0 | 0.00 | 0.00 | 0.00 | 62 | 1020.3 |
| 20260830021536 | 61 | 310 | 4.0 | 9.0 | 0.00 | 0.00 | 0.00 | 60 | 1020.3 |
| 20260830020034 | 63 | 306 | 4.0 | 10.0 | 0.00 | 0.00 | 0.00 | 58 | 1020.3 |
| 20260830011534 | 64 | 289 | 5.0 | 13.0 | 0.00 | 0.00 | 0.00 | 55 | 1020.3 |
| 20260830010039 | 63 | 300 | 5.0 | 14.0 | 0.00 | 0.00 | 0.00 | 55 | 1020.3 |